RH
84 78 80 81 77 74 71 70 68 68 70 66 61 62 63 60 59 59 57 53 58 67 68 65 57 53 54 54 55 59 61 64 66 70 73 83 91 86 82 88 92 91 92 94 88 84 87 88 87 86 87 89 94 95 93 90 84 71 63 62 60 59 56 59 67 59 55 62 68 79 85 78 75 80 86 89 91 92 91 91 90 90 90 88 86
82 76 80 79 76 75 72 72 72 71 72 68 63 63 64 63 60 57 51 51 58 62 63 62 53 49 53 52 54 59 61 63 65 71 76 83 91 87 81 85 90 88 89 91 84 81 86 88 89 90 90 92 96 97 96 94 93 86 77 66 53 50 54 55 53 47 43 43 45 59 72 78 74 70 75 80 84 86 85 89 91 90 92 90 87
84 77 78 74 73 76 72 71 72 74 75 72 69 65 64 62 58 55 50 50 57 60 61 61 54 52 54 52 54 58 60 61 65 71 77 84 88 88 85 83 85 86 87 87 81 80 85 89 92 93 94 95 96 97 97 95 95 92 86 79 67 57 54 53 51 47 44 43 43 45 50 61 64 62 65 63 62 68 70 81 92 91 89 89 90
85 77 74 71 71 75 75 75 76 78 76 73 72 68 66 63 59 57 52 51 58 62 62 62 60 58 58 57 55 57 59 61 66 71 76 82 85 86 86 83 80 81 84 87 86 88 91 94 96 95 96 96 96 97 97 99 98 95 91 88 82 75 68 64 62 60 57 60 63 62 59 59 59 59 59 53 51 54 53 62 79 85 84 86 84
84 77 72 70 71 75 77 79 82 83 79 76 73 71 69 66 65 62 57 53 60 66 65 67 67 61 63 61 58 58 58 59 66 73 77 81 83 82 83 84 81 77 81 86 88 92 93 94 95 94 94 93 93 94 94 97 98 97 95 93 90 86 82 78 77 75 73 78 83 83 77 71 65 58 55 54 51 47 41 44 57 70 79 86 83
76 75 73 74 78 80 81 83 84 84 84 81 76 71 66 67 67 64 61 54 59 69 65 68 69 64 66 61 58 61 58 58 64 72 79 82 82 80 79 84 87 84 83 85 87 90 89 89 91 91 92 92 91 90 91 94 94 94 95 96 96 93 89 87 85 84 83 86 88 88 85 78 67 54 50 53 50 44 40 40 42 49 60 73 81
75 77 79 81 84 83 84 85 82 81 84 83 76 69 65 67 65 63 65 59 64 72 65 69 73 69 69 64 63 65 61 61 66 73 79 80 80 81 81 84 90 90 85 85 87 86 85 85 85 85 87 89 89 88 88 91 92 91 93 93 96 98 95 92 90 89 89 88 88 88 88 85 75 62 53 51 52 53 55 56 54 48 45 51 64
85 81 82 83 83 83 84 82 81 81 82 82 76 68 65 67 68 69 70 71 78 75 67 74 76 71 72 70 69 67 64 64 68 76 79 78 79 81 82 81 86 88 82 85 89 85 82 81 80 80 81 83 86 89 89 89 90 89 91 92 94 98 99 98 96 95 94 92 91 89 88 87 85 79 71 67 68 70 75 80 81 72 58 49 50
90 81 80 81 80 84 88 83 83 85 83 81 74 67 68 72 78 78 71 74 80 75 73 76 75 76 75 73 73 73 72 72 75 79 80 84 83 80 84 82 81 83 81 84 87 83 79 77 78 78 77 77 78 82 85 88 90 89 89 90 91 93 96 98 98 98 98 97 96 94 92 88 86 87 86 84 84 84 87 89 92 90 78 63 54
91 82 78 79 81 85 88 85 83 86 84 79 72 68 73 77 80 82 76 74 78 79 79 75 74 79 77 76 81 81 80 79 81 79 79 88 86 77 80 81 80 82 82 83 85 83 80 79 79 76 70 66 64 63 68 77 87 91 89 87 88 89 90 93 96 97 96 97 99 99 97 92 87 88 90 91 91 90 90 91 93 94 89 81 75
88 83 83 82 82 86 88 86 83 85 83 76 74 73 77 81 82 84 81 75 78 83 81 77 79 82 81 83 84 83 82 81 81 80 81 87 87 83 83 83 81 82 83 83 85 85 83 84 83 77 66 58 61 62 62 70 82 92 91 89 91 90 89 91 93 94 94 96 98 99 100 97 92 90 92 95 96 94 91 92 93 95 95 93 91
90 87 88 83 78 81 85 88 85 82 82 77 73 76 82 86 86 87 85 79 80 83 82 82 85 88 88 87 86 86 86 84 82 82 85 84 82 84 84 83 82 81 82 82 84 84 83 84 83 79 70 63 68 73 73 75 82 91 93 91 91 92 91 92 93 93 94 94 95 98 99 99 97 94 97 99 99 99 96 95 96 97 97 97 96
95 91 86 78 74 74 75 86 89 79 78 79 75 80 85 85 86 88 87 89 90 88 87 84 86 91 92 93 94 92 88 86 87 87 86 81 77 79 78 77 78 78 80 81 81 82 81 79 78 77 76 76 80 84 86 84 82 88 92 90 90 90 90 92 93 91 91 93 94 96 96 96 97 96 98 98 97 99 98 98 99 99 99 100 100
94 91 82 74 72 71 72 84 91 80 76 81 82 83 85 83 84 85 84 91 93 90 91 88 86 87 86 90 93 92 88 86 88 84 79 78 76 76 76 76 76 74 75 75 72 72 74 74 74 75 77 80 84 87 87 85 83 86 90 90 88 89 88 89 90 89 90 92 93 93 94 94 95 95 97 96 93 96 98 98 98 99 99 99 99
88 83 77 72 67 69 75 83 86 81 78 82 82 82 84 81 80 82 84 90 92 90 89 85 85 86 80 80 82 82 85 87 86 81 76 76 71 70 73 72 74 73 69 66 61 60 65 71 75 77 79 79 80 83 83 82 81 83 89 89 86 85 84 82 83 85 89 92 92 94 95 96 96 94 95 95 95 97 95 92 91 93 96 98 99
85 81 77 72 70 75 82 84 81 80 79 80 80 79 82 81 78 81 82 86 93 92 87 79 79 83 75 71 74 72 75 80 82 80 75 70 63 65 66 64 69 71 64 57 55 57 62 70 75 76 79 81 80 82 83 82 81 83 85 86 86 87 84 80 77 79 85 90 91 95 96 96 95 91 90 94 94 91 83 75 71 72 75 75 75
82 82 80 79 82 86 86 83 81 81 80 78 77 76 78 79 79 81 79 85 93 91 89 83 76 78 74 70 74 70 67 70 72 75 72 63 61 65 65 63 66 63 55 50 51 56 62 70 75 74 76 77 78 80 82 84 86 87 84 80 81 82 78 73 69 70 78 82 83 85 89 92 93 91 90 87 76 65 58 52 47 45 44 40 48
81 80 82 84 86 89 87 83 82 85 84 80 77 75 76 78 78 81 80 83 88 89 93 92 83 85 84 75 75 71 65 65 68 72 71 64 61 64 65 64 62 53 45 45 49 54 60 67 72 73 71 70 74 79 81 82 82 82 79 73 70 67 67 66 63 61 61 61 62 65 72 77 78 76 71 61 46 35 31 28 26 24 25 26 41
81 77 81 85 84 86 87 83 80 84 86 84 80 77 75 75 77 83 83 81 84 87 91 93 92 90 83 74 74 73 66 64 65 67 72 73 67 62 62 61 53 44 40 44 51 54 55 59 62 65 65 65 71 76 77 78 75 74 73 67 62 57 56 57 55 49 41 35 36 38 40 42 42 40 36 31 25 22 21 20 20 19 19 21 29
81 78 78 81 82 83 84 83 82 81 82 83 80 78 75 75 80 83 82 83 84 85 88 90 89 87 82 78 78 76 69 66 64 61 66 74 72 63 60 61 54 45 42 46 51 52 49 48 48 53 58 61 66 70 74 76 67 61 60 52 45 38 33 31 30 29 27 24 24 23 23 23 23 23 22 22 22 23 22 22 23 23 22 23 22
82 81 79 79 81 82 82 83 83 80 80 78 74 75 75 79 87 85 81 84 86 87 89 88 87 88 88 82 78 79 75 69 68 67 67 69 69 63 58 60 56 49 47 47 47 47 44 41 40 44 51 55 60 61 64 65 52 42 40 33 26 24 23 23 24 24 24 24 25 25 24 24 24 24 25 28 32 36 39 39 36 31 25 22 23
78 80 81 80 82 83 82 82 83 83 80 75 71 73 77 82 87 87 84 87 91 92 91 90 88 86 84 79 77 84 84 79 79 80 80 74 62 55 55 54 52 50 48 45 43 42 40 38 36 36 42 45 47 51 55 56 43 29 26 23 22 25 25 24 22 19 19 19 21 23 23 23 23 23 25 28 32 36 43 50 53 52 43 31 24
74 76 77 78 82 85 83 82 83 85 82 76 72 73 77 81 86 89 85 81 87 92 91 90 84 79 85 84 77 80 83 85 85 81 85 81 60 49 51 47 46 46 44 41 38 37 37 36 34 34 36 36 37 44 45 39 29 22 22 25 27 26 22 18 15 13 14 14 15 17 17 19 19 20 20 21 22 23 26 31 39 47 51 50 42
73 73 73 75 79 83 86 85 83 85 83 77 75 74 76 78 81 86 84 81 86 89 87 85 79 79 88 87 78 78 82 85 84 77 78 78 60 48 47 41 39 38 37 37 33 32 34 33 32 33 33 32 32 36 32 23 21 26 28 27 24 20 16 14 14 15 16 16 17 18 18 18 19 19 20 19 19 20 21 22 24 28 35 43 48
69 70 73 73 73 77 83 86 85 86 84 79 77 74 75 77 77 79 81 85 89 89 88 85 81 82 85 83 80 79 79 82 81 70 67 70 60 48 42 36 33 29 29 31 29 28 30 28 28 31 30 29 29 32 33 27 28 30 27 23 20 18 18 18 21 24 26 28 29 29 29 28 28 27 26 25 24 22 21 22 22 23 26 28 34
64 66 69 69 69 72 76 80 83 86 85 83 81 77 76 75 73 76 78 83 87 87 88 87 84 83 84 86 86 78 73 73 71 62 62 69 63 49 41 36 29 23 23 25 24 24 24 24 26 26 27 29 31 35 38 33 31 29 24 22 22 21 22 24 30 34 36 37 38 38 38 37 37 36 35 33 31 29 26 24 22 22 23 25 26
62 65 67 65 66 70 73 73 77 83 84 85 82 79 80 77 74 79 79 80 84 84 85 88 88 87 87 90 88 80 75 73 68 62 63 69 62 48 43 37 29 24 22 20 20 21 20 22 24 25 29 34 37 38 38 34 30 27 25 25 26 27 26 29 36 39 39 40 40 41 41 40 40 39 38 37 35 34 31 28 26 24 23 23 25
66 68 66 64 64 66 66 67 72 77 82 86 83 80 84 81 77 83 82 77 81 82 81 85 90 93 93 89 85 82 77 75 71 63 63 67 59 48 43 35 28 27 24 20 20 20 20 21 23 26 30 35 39 38 37 34 27 26 33 32 28 29 29 33 39 40 40 42 42 42 41 41 41 40 40 39 38 37 35 32 30 28 26 25 25
69 69 66 65 64 61 57 60 69 73 75 80 81 80 84 82 79 84 84 79 78 78 77 79 84 91 90 81 81 83 75 73 74 66 64 66 56 47 42 32 28 27 25 25 24 20 19 21 22 26 29 34 41 40 36 33 28 31 43 41 32 29 30 34 38 39 40 41 42 43 43 43 42 42 41 40 39 38 36 35 33 31 30 28 27
66 66 66 65 65 63 59 60 68 72 71 71 71 74 80 81 81 82 83 82 78 77 79 80 83 87 82 75 78 82 76 71 71 66 64 64 53 43 39 31 28 27 25 27 26 21 20 21 21 23 27 34 40 38 34 33 33 37 46 45 37 30 28 32 34 35 38 39 40 42 43 44 44 44 43 41 41 40 38 37 35 33 33 31 30
62 63 63 62 61 62 61 62 66 69 70 69 67 68 71 75 82 84 83 83 80 78 80 82 85 80 73 77 82 81 76 71 67 64 62 58 49 42 37 30 27 26 24 25 26 23 22 22 21 21 24 31 36 35 33 33 34 37 43 46 43 34 30 33 35 35 37 38 40 41 41 43 44 44 45 44 42 41 40 39 37 35 34 33 33
60 62 60 58 58 59 58 59 62 64 66 69 68 66 65 70 79 81 80 80 79 80 79 77 80 74 67 77 82 73 70 69 66 63 59 55 49 42 35 29 27 27 25 24 26 26 26 25 23 21 23 29 32 33 34 34 33 34 39 44 45 40 36 36 37 37 39 39 40 41 41 42 43 44 45 46 45 43 42 40 39 37 36 35 34
59 60 58 57 56 54 53 52 54 57 60 65 67 65 63 67 73 73 73 77 76 76 73 67 72 74 72 77 76 69 68 68 64 58 53 52 48 40 32 28 28 27 25 25 26 28 30 30 27 22 23 27 29 31 33 35 34 33 36 41 43 42 40 38 39 38 37 38 39 40 41 42 42 43 44 45 46 45 44 43 41 39 38 37 35
57 55 56 57 54 50 50 50 52 55 56 60 65 64 62 65 69 67 66 66 62 60 60 57 62 71 73 71 69 70 70 66 58 51 48 49 42 34 30 27 26 28 26 25 27 30 32 33 31 26 25 26 27 28 31 34 37 35 34 38 41 41 39 38 38 37 35 36 37 38 40 41 41 42 42 43 45 46 46 45 43 41 40 39 37
55 55 54 52 49 48 50 51 54 57 58 61 64 63 61 61 61 61 59 56 53 54 56 54 56 65 70 67 66 70 69 64 57 47 43 44 37 29 28 27 25 27 28 24 25 31 33 34 33 29 27 28 27 27 29 32 37 37 33 33 37 38 37 36 36 35 35 35 36 38 39 40 40 41 41 41 43 46 46 46 45 44 42 41 39
54 54 49 47 47 49 51 53 55 59 60 62 61 56 55 54 52 52 52 52 52 53 52 48 47 55 63 65 66 69 67 65 59 49 41 38 33 28 27 28 26 26 28 26 25 29 31 32 33 29 28 32 31 28 28 29 34 37 34 31 33 35 35 35 34 34 35 35 36 38 39 39 40 40 40 40 41 44 46 46 46 45 43 42 40
53 50 46 45 46 49 52 52 52 54 55 57 56 53 51 49 46 46 47 48 49 47 45 41 38 43 50 55 60 66 72 71 60 48 40 36 31 26 26 28 28 27 29 29 27 28 28 29 32 29 27 30 32 30 28 27 30 34 35 33 32 32 33 34 33 33 35 35 37 38 39 40 40 39 39 40 41 43 45 46 46 45 44 42 41
51 48 44 42 43 45 47 45 43 45 48 50 51 53 54 51 47 44 44 46 45 42 40 38 38 42 45 46 49 56 68 75 65 51 43 38 32 28 27 27 28 30 33 33 31 30 28 28 29 30 28 28 29 30 29 27 28 30 32 33 32 31 31 32 33 33 34 35 36 37 38 39 39 38 38 39 41 43 45 47 47 46 45 43 41
49 46 42 41 42 41 41 41 40 40 41 42 45 49 52 52 51 48 46 46 44 43 41 38 39 43 45 46 47 48 53 62 62 56 49 42 37 34 32 30 29 30 34 34 34 33 32 31 31 30 31 30 28 30 30 28 28 28 29 30 30 29 29 30 32 34 36 36 37 38 39 40 39 38 38 39 41 44 45 47 47 46 45 44 42
46 43 40 40 41 42 43 42 40 42 46 47 47 49 48 49 52 52 51 49 46 45 45 42 42 44 44 45 46 47 49 51 53 56 53 48 47 44 39 38 35 34 36 35 34 33 33 34 34 32 33 32 31 32 31 28 28 28 28 28 28 29 30 30 31 33 37 40 43 45 44 43 42 40 41 42 43 45 46 47 47 46 46 44 43
42 41 40 39 41 45 44 43 46 54 58 53 48 49 48 47 49 50 52 53 50 48 48 46 46 46 43 45 47 48 52 52 52 56 56 52 52 49 44 43 41 39 39 37 36 36 34 33 34 33 33 33 32 33 32 31 30 29 28 29 30 30 30 31 31 33 36 40 46 51 51 49 46 44 44 45 45 45 46 46 46 47 46 45 45
44 43 41 39 40 41 41 50 62 64 55 47 43 47 50 50 50 49 48 50 50 48 47 45 45 44 41 44 50 48 45 45 46 48 50 49 50 50 49 49 49 45 43 40 37 36 35 33 33 33 32 32 32 31 32 34 34 33 32 33 33 33 32 32 32 34 36 38 43 48 49 50 50 49 48 48 46 46 46 46 46 47 47 48 50
49 48 44 42 42 43 48 61 65 53 43 41 41 43 47 50 54 53 47 47 47 45 42 41 41 42 39 42 48 45 39 41 42 40 40 40 40 40 43 46 50 49 47 44 42 40 38 35 34 34 34 33 32 31 31 32 34 35 36 37 37 37 37 35 35 36 37 38 42 44 44 46 50 50 48 48 47 46 47 48 49 50 51 53 53
57 54 53 52 54 60 64 65 56 43 41 43 40 40 42 44 48 52 50 47 46 44 42 41 40 39 37 41 46 45 42 46 49 46 43 42 39 36 35 37 40 41 41 41 42 43 43 42 40 37 34 33 33 33 33 33 33 34 36 38 38 38 40 40 41 40 39 40 44 47 46 46 48 49 47 47 48 48 49 52 54 54 54 55 55
71 68 66 65 66 69 66 57 49 46 45 44 43 42 43 40 40 47 51 47 43 44 45 44 45 44 43 45 49 48 47 48 48 46 46 48 49 46 40 36 35 34 34 34 35 37 41 45 48 47 43 40 38 36 36 36 37 39 41 42 42 41 41 42 42 41 42 45 49 51 50 47 46 49 50 49 50 53 54 55 56 57 56 56 55
79 78 74 72 70 68 63 53 51 53 53 52 49 45 44 44 40 45 55 54 47 49 52 51 54 56 54 55 53 50 53 56 51 49 52 55 57 58 54 48 45 42 40 38 36 35 36 39 45 50 51 50 48 46 46 47 47 48 48 49 52 51 46 45 46 48 52 53 53 53 52 48 47 51 54 52 50 53 57 57 57 57 57 56 55
77 78 76 73 69 67 64 57 55 58 59 61 61 55 50 48 45 50 60 59 55 56 59 60 60 59 60 61 56 54 62 67 63 59 61 59 57 60 60 56 55 54 51 50 48 45 44 42 42 47 50 51 52 53 54 55 57 59 57 56 58 57 55 55 56 60 63 61 58 57 54 50 48 51 54 53 50 51 55 59 61 60 59 58 55
73 74 75 74 72 69 66 61 58 58 59 62 63 62 61 57 54 57 59 58 59 63 67 68 64 63 70 70 65 67 73 75 71 68 66 62 62 67 66 60 58 56 53 54 55 55 56 54 51 51 52 51 53 54 54 55 58 62 62 61 61 60 60 60 59 60 63 62 61 60 57 54 51 50 51 52 51 49 53 59 61 59 58 57 55
68 70 71 71 73 73 72 70 62 51 48 53 56 57 62 62 60 59 56 54 58 62 65 67 64 66 76 73 66 74 83 82 80 79 76 72 72 76 76 69 66 67 64 62 61 59 61 64 62 59 57 56 55 53 52 53 56 60 62 63 65 67 67 70 71 68 64 62 62 62 60 58 55 52 51 51 51 48 49 55 58 56 55 56 57
64 65 66 67 70 71 72 74 72 59 43 38 40 42 45 49 54 57 53 48 52 57 58 59 59 62 70 67 60 68 76 74 73 72 70 68 67 72 79 78 73 73 72 73 73 70 67 66 64 62 61 63 65 61 56 53 54 58 62 63 64 66 70 76 76 69 62 62 64 63 62 60 59 57 54 50 48 46 45 50 57 57 56 56 56
64 61 60 63 62 57 51 50 61 70 56 35 29 30 28 28 34 44 49 46 47 52 50 47 48 52 59 62 57 55 55 53 51 51 51 50 50 56 68 75 74 72 74 80 85 86 81 74 69 67 66 68 72 71 65 60 57 58 61 62 62 63 67 71 68 64 65 67 64 62 62 61 58 58 54 48 46 45 44 49 55 55 54 54 53
Wind_Speed
15 14 12 12 11 10 9 9 9 9 9 9 9 10 10 10 10 10 10 10 10 9 10 10 9 9 9 9 8 8 9 10 11 12 13 11 10 11 12 13 11 9 8 7 8 8 8 7 7 9 10 10 10 10 11 11 11 12 12 10 9 8 9 10 10 10 11 11 10 10 10 11 11 10 11 12 12 12 13 13 13 13 14 14 14
14 12 11 12 11 10 9 8 8 8 8 8 8 9 9 9 9 10 11 11 11 10 9 9 9 8 9 9 8 8 9 9 10 14 14 11 11 11 11 12 11 10 8 7 7 8 8 8 9 10 9 9 8 8 9 10 12 14 14 13 11 10 10 10 10 10 11 11 10 10 9 9 9 10 10 10 11 11 11 12 13 13 13 14 14
14 12 11 11 11 9 9 8 8 7 7 7 7 8 8 8 9 11 11 10 11 11 10 10 8 8 9 9 9 8 8 8 9 13 14 12 12 11 10 10 10 10 9 8 9 9 9 9 9 9 8 7 7 6 7 8 9 12 12 13 12 11 10 10 10 10 11 11 11 10 9 8 8 9 9 9 10 10 11 12 12 12 12 13 13
12 12 11 9 9 9 8 8 8 7 7 8 8 8 8 9 10 10 10 9 9 10 10 10 8 8 9 8 9 8 8 8 9 12 13 13 13 12 11 10 11 10 9 9 9 8 8 8 7 6 6 5 5 4 4 5 5 7 9 9 10 11 10 10 10 10 11 11 11 11 10 8 7 8 8 9 10 11 11 11 11 11 11 12 12
13 13 11 9 9 9 8 8 8 8 8 8 8 8 9 9 9 8 8 8 8 9 11 8 7 10 9 8 9 8 8 8 9 13 13 13 13 12 11 11 11 10 9 9 7 7 6 6 6 5 5 5 5 4 4 4 3 4 5 6 7 8 10 10 10 10 11 12 12 12 12 11 9 8 8 9 10 10 11 11 10 10 11 11 12
17 14 11 10 9 9 9 8 8 9 8 8 8 8 8 8 9 9 8 9 8 9 11 9 8 11 8 7 9 7 8 8 9 13 12 11 13 12 12 12 11 9 9 8 6 6 6 5 5 5 5 5 5 5 4 4 3 3 3 3 3 5 7 9 10 11 11 12 13 13 14 14 13 11 10 11 11 11 11 11 10 10 10 10 11
17 15 12 11 10 9 9 9 9 9 8 8 9 9 8 9 9 9 9 9 7 10 12 11 10 11 8 6 8 6 7 7 8 12 11 9 10 10 11 11 10 8 7 7 6 6 6 5 5 5 5 5 5 5 4 3 3 3 2 2 2 2 4 6 7 8 9 10 11 11 12 14 15 14 13 13 12 12 12 12 12 11 10 10 10
15 15 14 12 11 11 10 10 10 9 8 8 9 9 9 9 7 8 10 6 5 10 11 11 10 9 7 6 7 6 7 7 7 11 10 8 8 8 9 9 9 8 6 7 8 6 6 6 6 5 5 5 5 6 5 4 3 3 3 2 2 1 1 1 3 4 4 5 7 8 9 11 13 14 14 14 13 13 13 14 14 12 11 10 9
14 14 14 14 13 11 10 10 11 10 9 9 9 9 9 8 7 8 10 7 7 10 11 10 8 7 7 7 7 6 6 6 6 9 9 8 7 7 8 8 8 9 8 8 8 7 7 7 6 6 5 5 5 5 5 5 5 4 3 3 2 2 1 1 1 1 0 1 3 5 7 9 11 11 12 13 13 13 13 14 14 14 13 12 10
13 13 13 12 11 10 9 9 10 10 10 9 9 10 9 8 8 8 9 10 10 11 10 9 9 9 8 7 7 7 7 8 6 7 8 8 7 8 9 9 8 9 9 8 9 8 7 7 7 7 6 5 5 4 4 5 6 5 4 4 4 4 2 1 0 0 1 1 1 1 3 6 8 7 8 9 10 12 12 13 13 14 14 14 13
13 12 12 12 11 9 8 8 10 10 10 10 8 9 9 7 9 10 8 10 12 13 11 9 9 10 8 8 9 10 10 9 7 7 8 8 8 8 10 9 8 9 8 6 6 8 6 5 7 7 6 6 6 6 5 5 6 6 5 5 4 4 3 3 2 2 1 1 0 2 2 3 4 4 4 4 5 7 9 9 10 10 11 12 13
11 11 11 13 13 10 7 8 11 11 10 10 9 10 9 8 9 12 12 11 13 13 11 10 10 12 12 12 11 11 9 9 8 7 7 8 8 8 9 10 9 8 7 5 5 7 6 4 5 6 5 7 9 10 9 7 7 8 7 6 6 6 6 7 6 6 4 2 1 2 2 1 2 2 2 1 2 3 4 5 6 6 7 8 9
10 10 11 12 11 9 8 10 11 11 10 8 8 9 8 9 9 12 14 13 12 11 10 11 13 13 12 11 10 9 8 9 8 6 7 8 8 7 7 8 9 8 8 7 6 6 6 5 5 5 6 7 10 11 11 10 10 11 11 10 10 10 10 11 10 10 9 7 5 4 3 2 2 1 1 2 3 3 3 3 4 4 4 4 4
10 10 11 12 11 9 10 12 11 9 9 7 7 7 8 9 9 10 12 11 12 13 12 11 10 10 12 10 8 8 8 8 8 7 8 7 6 6 6 7 8 8 8 8 7 6 6 6 6 5 6 9 10 11 12 12 12 14 15 14 14 14 15 15 15 15 15 14 12 11 9 7 6 4 3 4 5 5 5 6 6 6 6 4 4
11 9 11 13 12 11 12 12 11 9 8 8 8 9 8 8 8 9 11 10 10 14 15 12 11 12 12 8 5 6 6 6 6 8 9 7 6 6 6 8 8 8 8 8 7 7 7 7 7 7 7 8 10 12 14 13 13 16 17 16 16 16 16 16 16 16 17 16 16 16 15 14 13 12 11 11 11 11 11 11 12 12 11 9 7
12 10 9 12 12 12 13 12 11 9 9 9 9 9 9 8 8 7 11 10 8 12 15 15 17 13 8 6 6 6 5 5 7 8 8 7 6 6 6 7 9 8 8 8 8 7 8 8 8 8 8 8 10 12 14 14 14 15 16 16 16 16 15 15 15 15 16 15 15 16 17 17 16 15 15 15 15 14 14 14 15 15 15 13 11
11 11 10 11 12 11 11 11 9 7 8 9 8 9 8 8 9 7 8 11 10 10 11 15 19 10 3 5 5 3 4 7 9 7 7 7 7 6 6 7 8 7 7 8 9 8 9 9 8 8 8 8 9 11 13 14 14 14 14 15 15 15 14 14 15 15 16 15 15 16 16 15 15 15 14 15 15 15 15 15 15 16 16 16 15
10 12 12 13 14 12 11 11 9 7 8 8 8 9 8 7 10 9 7 10 13 13 10 12 15 7 1 3 0 1 6 10 7 4 5 7 7 7 6 7 6 7 8 8 9 9 9 9 9 8 8 9 10 11 12 13 14 14 14 14 14 14 15 15 15 16 16 16 16 16 15 15 14 14 14 14 15 15 15 15 16 16 16 16 17
11 11 11 12 13 12 11 10 8 8 8 7 8 8 8 7 8 8 8 10 13 14 13 12 12 8 5 3 2 2 8 9 6 5 6 5 6 7 7 6 6 6 7 8 8 9 8 9 9 9 9 9 10 11 13 13 13 13 12 12 12 13 14 15 15 15 15 15 16 15 15 14 14 14 14 14 14 15 15 16 16 17 17 17 17
11 11 11 10 10 10 10 9 8 9 8 8 8 7 7 7 6 8 9 11 11 13 13 12 11 8 6 4 2 2 7 8 6 7 7 5 5 7 7 7 6 6 7 8 9 8 8 8 8 9 9 10 10 11 12 12 12 12 10 9 10 11 12 13 14 15 15 15 15 15 14 14 13 14 14 14 15 15 16 16 16 17 17 17 17
10 10 10 10 9 10 10 10 9 9 8 8 8 7 6 6 7 7 7 10 12 11 11 12 12 9 6 5 3 2 4 6 5 3 4 6 6 6 8 8 6 6 6 7 8 8 7 7 8 9 9 10 10 11 11 11 11 11 10 9 10 11 12 13 14 14 15 15 14 14 14 13 13 13 14 14 15 15 16 16 16 16 17 17 17
9 9 9 9 9 9 10 10 9 9 8 8 7 7 6 5 7 6 6 9 10 9 10 12 12 10 7 6 5 4 4 4 2 1 1 5 7 7 10 9 7 7 6 7 8 8 8 7 8 9 9 10 10 11 12 11 11 11 11 10 10 11 12 13 14 15 15 15 15 14 14 14 14 13 14 14 14 15 15 15 16 16 16 16 17
8 8 8 8 9 8 8 9 9 8 8 7 7 7 7 6 6 7 8 8 8 8 10 10 12 13 11 8 7 9 8 4 3 5 4 4 5 8 10 10 10 9 8 8 8 9 8 7 8 8 9 10 10 11 11 11 11 12 12 11 10 11 13 14 15 16 17 17 16 16 16 16 15 15 15 14 14 14 14 14 14 14 15 15 15
7 6 6 7 8 8 7 8 8 7 7 7 7 7 7 7 7 8 10 8 7 8 10 12 13 13 12 10 8 9 9 9 10 9 8 7 6 8 10 10 10 9 10 9 8 9 8 8 8 8 9 10 11 11 11 12 12 12 12 11 12 13 14 15 16 16 17 18 18 19 18 17 17 16 16 15 15 14 14 14 13 13 13 14 14
6 5 6 6 6 6 7 7 6 7 7 6 6 6 6 7 6 7 8 8 7 7 9 15 14 11 11 10 9 8 9 11 13 12 14 12 8 8 10 10 10 10 11 10 9 9 8 8 9 9 10 11 12 12 12 13 13 12 13 13 14 14 15 15 16 17 18 19 19 19 19 18 18 17 17 16 16 15 14 14 14 14 13 13 13
5 5 5 4 4 4 5 5 5 5 6 6 5 5 6 6 6 5 6 7 7 6 6 12 12 9 10 10 9 9 8 8 9 12 16 12 8 10 10 9 10 10 11 11 10 10 9 9 10 10 11 11 12 13 12 12 13 13 14 15 15 14 14 15 16 17 18 18 18 18 18 17 17 16 16 16 15 15 14 14 13 13 12 12 12
5 5 4 4 3 3 3 4 4 4 5 6 6 6 5 5 5 6 5 5 6 6 4 7 10 10 10 10 9 9 8 6 6 10 14 10 9 12 10 7 8 8 9 11 10 10 10 10 10 10 11 11 12 12 12 12 14 15 15 15 14 13 13 14 15 15 16 16 16 15 15 15 14 14 14 14 13 13 13 12 12 11 11 11 10
6 5 4 3 2 2 3 3 3 4 4 5 6 5 6 5 5 6 6 6 5 6 5 5 7 9 10 9 8 8 9 8 7 11 13 9 9 12 11 9 7 6 7 8 8 10 11 11 11 10 11 12 12 12 12 13 14 16 15 14 14 13 13 14 13 12 12 13 12 12 12 12 11 11 11 11 11 11 11 10 10 10 9 9 9
7 6 4 3 2 2 3 3 3 3 4 5 5 5 6 5 5 6 7 6 5 6 5 4 5 7 7 9 8 8 10 10 10 11 12 12 12 13 13 10 7 6 5 5 6 9 11 11 11 11 12 12 12 12 12 14 15 15 13 12 13 13 13 13 12 10 9 9 9 8 8 8 8 8 8 8 8 8 8 8 8 8 8 8 8
7 6 5 4 3 2 2 2 3 3 3 3 4 4 5 4 4 5 6 6 6 6 6 5 5 6 8 10 9 8 9 10 11 11 11 12 13 12 11 10 9 8 7 5 6 9 11 10 10 12 13 13 13 13 13 14 14 13 12 12 12 13 13 12 10 9 7 7 6 5 5 5 4 5 5 5 6 6 6 6 6 7 7 7 7
7 7 6 5 4 3 3 3 3 3 3 3 3 3 4 5 5 5 5 7 6 6 7 7 7 8 10 11 9 9 10 9 10 11 11 11 11 11 10 9 8 8 9 7 6 8 10 9 9 12 13 13 13 12 13 15 14 12 11 11 11 12 12 12 10 9 8 6 5 5 3 3 2 1 2 2 3 3 5 5 5 6 6 7 7
7 7 6 5 4 4 4 4 4 4 4 3 3 3 4 5 5 5 6 7 8 8 8 8 8 9 9 9 11 12 12 10 10 11 11 11 11 11 9 7 6 6 9 9 7 8 8 8 9 12 13 13 13 13 13 13 13 11 10 11 13 13 11 12 11 10 9 8 7 6 5 4 4 3 3 2 2 2 3 4 5 5 6 7 7
7 7 5 5 4 4 4 4 4 4 4 4 3 3 3 4 4 5 6 8 9 9 8 8 9 10 11 12 13 13 13 12 12 12 11 11 11 11 8 7 8 8 9 10 10 9 8 7 8 10 13 13 12 13 13 13 13 13 11 12 14 14 13 13 13 12 11 10 9 8 8 7 6 6 6 6 5 5 4 5 5 6 6 7 7
7 6 6 4 4 4 4 4 3 2 3 3 3 3 3 3 3 3 4 5 5 5 5 6 8 9 11 13 13 13 13 12 12 12 12 12 12 11 9 8 11 11 11 11 14 12 9 9 8 9 12 12 12 13 13 13 13 14 13 13 14 14 13 14 15 15 14 12 11 11 10 10 9 8 8 8 8 8 7 6 6 7 7 7 8
7 6 5 5 4 5 4 4 3 2 2 3 3 3 3 3 3 3 3 4 3 3 4 5 6 6 6 9 11 13 12 11 12 12 13 13 13 12 11 9 11 11 10 8 14 16 12 10 9 10 12 11 11 12 13 13 13 14 14 14 14 13 13 14 15 17 17 15 13 12 11 12 11 11 11 10 10 10 10 9 8 8 8 8 8
7 5 5 5 4 5 5 4 5 4 3 4 4 4 3 4 4 4 4 4 4 5 6 7 8 6 5 6 8 11 12 12 13 13 13 14 14 12 12 10 10 11 8 5 7 14 14 12 10 11 12 13 11 11 12 14 14 13 13 14 14 14 13 13 14 15 16 14 13 13 13 14 14 14 14 13 13 12 12 12 10 9 9 9 9
7 6 5 5 5 6 6 5 6 5 4 4 4 4 3 3 4 5 5 5 6 7 6 6 7 7 7 7 8 10 11 13 14 13 13 13 12 10 13 11 10 11 8 5 5 7 9 12 13 11 11 13 11 11 11 13 14 14 13 13 14 14 14 13 13 14 15 14 14 15 16 16 16 16 16 16 15 15 14 14 12 11 10 10 10
7 6 6 5 5 6 6 6 6 5 5 5 5 4 4 3 3 4 5 6 6 6 5 5 6 5 6 7 7 9 11 12 13 13 12 12 10 9 12 12 11 12 10 7 7 7 7 8 11 10 9 10 11 11 11 12 12 13 12 12 12 13 13 12 11 12 15 17 17 18 19 20 20 19 19 18 17 16 16 15 14 13 12 12 11
7 6 6 5 5 6 6 5 5 4 4 3 4 5 4 5 4 3 4 5 5 6 5 6 6 6 6 6 6 7 8 9 12 12 11 11 9 7 9 10 9 11 11 9 9 9 8 8 9 9 9 10 11 10 11 12 12 12 12 12 13 13 13 14 12 11 12 15 18 20 20 21 22 21 20 20 19 18 18 17 16 15 14 13 13
7 6 6 6 5 5 5 5 4 4 3 3 4 4 2 4 5 5 4 5 5 6 5 5 5 5 6 6 5 6 5 5 9 11 11 11 9 7 8 8 8 7 8 10 10 10 10 10 11 10 10 11 12 11 11 12 13 14 14 13 13 13 14 16 17 16 14 13 13 16 19 20 21 22 20 19 20 20 19 19 18 16 15 14 13
8 7 6 6 6 6 6 6 4 4 4 4 4 4 3 2 2 5 7 6 5 6 6 6 6 5 6 6 4 5 6 5 7 8 9 11 10 7 7 8 8 8 8 9 10 10 10 11 11 11 11 12 12 12 12 12 12 13 13 13 14 14 15 15 16 17 17 14 12 12 14 18 20 22 22 21 22 22 21 21 20 18 17 16 14
9 7 7 7 6 7 8 6 6 4 2 2 3 2 2 3 2 1 5 7 6 6 7 7 6 6 7 6 4 5 6 6 6 7 8 10 9 5 4 5 6 7 8 10 10 10 11 10 10 11 11 12 12 12 12 12 12 12 12 13 14 15 16 16 15 14 16 16 15 14 15 17 18 19 20 21 22 22 22 22 21 20 18 16 14
10 7 7 7 6 7 8 8 6 5 4 3 3 3 2 2 3 5 2 4 6 6 6 7 6 6 7 6 6 6 6 4 4 4 5 7 7 6 4 4 4 5 6 8 9 10 10 11 11 11 11 12 12 12 12 13 13 14 14 15 15 15 15 15 15 16 16 17 17 17 16 17 18 17 16 18 21 23 22 21 21 20 18 16 15
11 8 6 7 7 9 11 10 8 7 6 5 4 4 3 3 2 3 1 2 4 5 5 6 6 7 8 7 6 6 5 4 2 1 3 4 5 7 7 7 7 8 9 10 10 10 9 10 11 12 12 13 13 13 13 13 13 14 15 16 17 16 16 15 16 18 17 15 16 17 17 16 18 18 16 16 18 21 22 21 21 20 19 18 17
12 11 9 9 10 10 11 11 10 9 8 7 6 6 5 4 4 3 1 2 4 4 4 4 3 3 5 5 5 5 4 3 2 2 4 5 5 6 8 8 9 11 11 13 13 13 12 11 11 11 12 12 13 14 13 14 14 14 14 15 15 16 17 18 19 20 17 14 15 16 17 18 17 18 18 17 16 18 20 22 22 21 20 19 19
14 14 12 12 11 10 10 12 11 10 9 8 7 7 6 5 6 4 1 1 2 2 2 2 1 0 1 1 3 3 2 2 3 4 3 3 5 6 8 8 10 11 12 14 14 15 15 15 14 14 13 13 13 14 13 13 13 14 15 14 14 16 18 19 19 17 14 14 15 15 16 18 17 17 19 18 16 16 18 20 22 22 21 21 20
13 13 13 13 12 11 10 12 12 11 10 8 7 7 6 6 6 3 1 1 2 2 2 1 1 1 1 2 3 3 1 1 3 4 4 5 6 7 8 9 10 11 12 13 14 15 16 17 17 18 17 17 16 15 15 15 13 15 16 15 15 17 18 18 18 14 12 14 15 15 16 18 16 17 18 16 15 16 17 18 19 20 21 21 19
13 13 13 12 12 11 10 10 10 11 10 7 6 6 6 7 6 3 1 3 2 2 2 2 2 2 1 1 1 2 1 2 5 6 8 9 9 8 10 11 12 13 13 13 13 15 16 17 18 18 19 20 21 21 21 19 17 18 18 17 18 19 19 19 18 17 15 15 16 17 17 17 16 17 16 14 15 16 17 17 18 19 20 20 18
14 12 12 13 13 12 10 9 8 8 9 8 6 5 5 7 6 4 1 2 2 1 1 1 2 2 2 2 2 2 1 4 6 7 9 10 10 10 11 13 13 14 15 14 15 16 16 17 20 21 22 23 24 25 26 24 23 22 21 19 19 19 19 17 16 18 19 17 17 19 18 15 15 16 16 15 16 18 17 16 18 19 20 19 17
13 11 12 13 13 12 11 10 9 7 6 6 5 4 3 4 5 3 3 2 1 1 2 2 2 2 3 5 5 2 3 6 8 9 11 11 11 10 11 13 14 15 15 15 16 18 20 21 23 25 27 27 27 29 30 29 29 26 25 23 21 20 20 18 18 22 23 21 19 19 18 15 15 14 16 17 18 19 18 16 16 18 18 17 16
12 11 11 12 12 11 10 10 10 7 5 6 6 5 5 3 3 3 5 4 2 3 4 4 4 3 3 6 7 5 6 8 9 10 11 12 11 11 11 12 13 14 14 13 13 15 18 22 25 26 27 26 27 28 29 31 32 32 31 30 26 22 20 20 20 19 15 15 16 17 18 17 15 14 17 17 15 15 16 16 16 16 16 15 14
Wind_Direction
163 165 172 171 164 158 159 159 158 162 172 179 180 177 190 199 195 200 207 210 205 189 187 190 174 153 149 145 142 139 133 134 138 131 121 124 126 117 116 114 110 105 100 95 85 87 99 101 98 94 93 91 86 77 69 69 68 62 63 68 78 84 79 77 77 73 74 76 74 74 70 69 72 71 69 68 63 61 63 63 61 59 58 58 57
167 170 177 169 157 156 157 156 159 164 171 177 177 178 188 194 193 202 206 205 199 192 184 172 170 164 154 150 147 143 137 141 141 132 127 127 128 121 118 116 112 114 113 104 93 95 105 108 105 101 99 93 83 73 63 59 62 61 57 60 66 78 82 80 80 77 76 75 75 75 74 72 71 73 74 74 70 66 66 65 62 60 60 60 57
177 176 171 164 156 156 155 156 161 162 169 173 177 181 186 191 197 207 211 203 185 182 180 171 172 163 158 156 148 149 144 139 135 134 136 132 128 123 120 122 123 129 126 109 99 98 100 100 99 98 98 92 81 73 56 47 55 60 58 59 62 71 81 84 83 81 78 74 73 73 74 77 73 74 77 75 74 71 71 70 65 62 62 63 59
171 169 163 162 157 154 153 156 159 163 171 172 180 184 187 197 205 211 214 203 170 164 176 174 172 162 156 153 149 153 147 141 134 132 135 132 129 125 120 122 124 126 120 110 108 103 98 98 100 102 102 92 77 67 52 44 46 53 58 63 66 70 74 81 83 80 78 75 75 73 71 74 75 78 78 75 75 74 74 75 71 68 65 62 60
160 159 162 164 156 155 157 158 159 164 171 172 177 184 191 195 200 203 204 197 167 157 168 156 152 166 159 151 154 153 150 150 136 127 129 130 133 131 125 121 118 117 112 108 110 105 104 106 105 104 96 76 58 49 41 41 34 35 49 59 69 77 75 77 81 82 83 79 76 73 70 69 72 79 81 76 74 75 77 76 75 73 69 64 59
164 156 160 164 158 158 159 161 167 170 174 177 177 184 189 184 187 188 191 196 172 157 167 146 140 164 163 156 155 151 152 150 135 129 127 127 134 135 134 131 121 116 113 111 112 107 110 109 101 91 75 58 47 46 39 37 32 26 33 36 56 81 80 78 80 81 82 79 72 68 67 66 68 74 79 76 73 74 75 74 73 72 70 69 65
167 160 162 166 161 162 166 169 178 180 178 179 183 188 183 180 189 179 183 202 166 151 166 154 153 164 156 150 149 150 155 149 133 126 125 128 131 133 141 142 125 116 116 112 115 114 107 99 92 83 75 69 56 48 43 41 35 35 28 11 34 71 77 80 81 77 78 77 71 66 65 66 69 73 76 76 75 75 74 71 67 65 65 66 66
169 167 166 168 167 167 176 183 187 189 186 186 192 194 181 182 191 167 177 202 138 145 164 156 154 156 148 146 145 155 155 149 135 121 124 132 129 133 141 140 122 119 128 121 118 116 107 98 87 80 77 76 72 60 52 48 36 40 48 31 32 66 91 106 88 74 77 80 77 76 74 72 71 74 78 78 77 75 73 71 66 63 64 61 61
169 173 170 173 176 173 182 191 192 197 197 191 194 192 181 184 186 168 187 199 141 146 162 157 151 149 152 151 146 152 137 124 128 127 133 134 134 143 135 130 128 124 126 126 125 116 104 99 85 76 76 73 73 70 61 51 42 40 53 57 45 43 35 252 199 123 97 71 90 95 90 83 77 75 78 78 76 75 72 70 66 62 62 63 61
169 173 174 176 180 182 188 192 194 202 198 192 198 192 184 194 189 175 198 198 162 149 156 164 167 163 158 150 142 142 129 116 124 145 147 135 135 139 126 128 134 121 112 119 130 122 105 101 87 72 72 73 63 58 61 53 47 47 54 65 59 51 46 351 249 172 278 282 234 158 116 96 89 83 80 78 75 72 70 70 68 62 59 61 61
170 173 177 178 183 189 192 192 198 203 198 195 197 192 186 197 186 170 189 197 173 155 157 173 173 155 139 139 138 134 138 136 141 158 146 131 139 144 133 127 120 109 105 112 121 113 106 103 96 85 69 62 58 55 62 61 54 55 54 62 68 66 68 66 65 59 37 345 260 191 170 130 119 104 81 79 75 72 71 68 67 65 61 57 57
171 179 186 186 187 190 196 205 208 202 201 200 193 192 188 187 178 163 166 179 177 166 165 165 142 121 120 132 133 130 139 137 141 152 137 134 149 150 139 130 123 119 122 125 109 100 105 102 100 112 96 66 65 63 64 68 67 64 59 63 72 78 79 76 72 66 57 49 82 156 168 185 163 123 64 7 2 36 56 51 46 51 60 61 59
171 182 186 188 189 195 211 220 219 204 198 204 196 195 191 188 182 166 162 164 171 176 166 149 131 117 119 124 120 122 134 134 136 149 150 149 148 139 134 133 130 129 130 132 129 114 114 111 100 122 123 90 75 67 65 68 72 72 69 71 76 80 81 79 76 74 71 72 86 108 111 114 135 125 0 336 348 0 20 25 15 11 32 54 55
178 183 176 180 191 203 215 222 228 213 195 197 195 197 197 192 184 170 168 163 167 172 158 142 142 136 130 126 115 115 127 138 144 160 168 161 146 142 140 135 128 126 127 125 126 116 108 112 103 99 101 95 88 80 76 73 76 80 77 77 81 82 82 81 78 78 76 76 82 88 93 96 97 92 65 43 52 66 65 59 54 43 44 55 49
187 186 175 182 195 201 207 218 227 216 200 196 192 199 202 194 191 176 163 159 161 165 161 153 148 141 136 137 136 132 134 143 154 161 165 163 154 153 143 133 127 126 128 119 115 110 103 104 97 90 87 91 93 89 85 81 84 88 85 83 84 84 83 82 82 83 83 83 84 87 89 89 88 86 81 80 86 86 78 72 68 63 62 67 66
190 185 181 189 198 200 201 213 222 214 206 204 198 202 203 191 198 189 158 163 172 161 164 165 155 145 139 139 145 156 151 144 153 155 160 162 149 140 133 128 125 124 125 117 113 109 104 101 95 94 91 91 95 92 88 88 88 89 91 90 88 87 87 86 87 89 91 91 90 90 90 91 90 87 83 83 86 84 78 73 70 68 67 67 62
188 185 194 197 198 204 207 209 212 213 215 213 203 204 210 192 192 199 164 164 175 161 162 167 162 157 135 135 146 172 160 144 144 148 160 153 129 123 119 114 118 122 119 115 114 110 106 106 102 100 97 94 96 93 91 90 88 87 92 95 95 94 93 91 90 89 90 90 88 88 90 91 92 90 85 79 77 77 75 72 69 68 66 62 56
183 186 194 195 194 199 204 204 200 208 220 219 210 204 211 203 187 194 184 164 166 165 168 171 169 173 164 149 13 47 150 151 145 140 146 132 120 123 117 115 124 123 117 113 112 111 109 107 104 102 100 96 94 93 95 96 95 93 95 99 99 98 95 92 90 88 88 88 87 86 86 87 87 86 84 78 74 73 71 70 69 68 67 64 60
183 186 188 187 190 193 197 200 195 202 215 224 226 207 204 215 187 179 185 171 168 171 171 172 172 178 181 168 10 70 148 156 153 146 141 121 120 128 120 117 118 110 115 115 111 109 110 112 112 110 108 105 101 97 97 96 94 93 98 102 101 100 98 96 94 92 90 89 88 87 86 85 85 83 82 79 76 74 71 70 70 70 70 70 68
183 186 187 186 188 190 191 195 194 200 208 216 230 218 201 208 184 180 183 171 180 181 170 171 168 166 174 161 82 130 160 163 157 153 150 137 134 140 131 114 97 92 101 110 116 116 117 122 121 117 112 109 106 102 99 97 97 99 102 103 99 98 100 99 98 95 92 91 89 90 90 89 87 85 83 81 78 76 73 71 69 69 69 70 72
181 182 185 184 185 190 190 193 196 198 202 208 220 221 204 182 168 190 184 162 182 189 175 177 167 154 159 148 119 131 175 181 168 154 150 149 153 154 144 133 119 112 107 113 122 121 119 121 119 116 111 108 107 104 101 100 104 107 104 101 100 100 101 100 99 98 97 96 95 94 93 91 90 88 86 83 81 78 75 71 68 66 65 65 66
175 178 179 178 182 190 192 194 194 196 202 208 212 211 211 189 165 189 196 167 174 176 174 178 163 152 160 160 163 160 173 201 177 117 187 175 166 156 153 152 141 134 135 137 137 133 129 127 122 119 114 112 109 103 105 110 112 112 107 103 102 102 103 102 101 101 100 100 100 99 97 94 92 90 88 85 83 80 78 75 72 69 65 61 59
163 170 173 173 177 185 192 195 193 196 202 205 208 204 212 208 172 185 203 186 169 164 170 170 161 165 166 163 177 172 171 187 153 146 195 219 181 156 160 159 144 143 152 152 150 146 141 137 130 122 117 116 111 108 119 127 119 113 110 108 106 106 105 104 103 102 103 103 103 100 98 96 93 91 88 85 82 79 77 75 74 72 69 65 60
154 159 165 168 173 179 188 193 195 201 202 202 207 202 204 203 186 190 194 181 174 179 173 163 164 174 169 164 173 168 170 175 165 167 184 202 192 166 164 158 145 145 151 157 160 152 146 145 137 131 125 118 114 115 126 130 121 116 116 114 115 112 108 106 104 103 104 104 103 101 98 96 93 90 87 84 80 76 73 69 67 66 65 65 64
151 151 157 164 169 174 184 191 195 202 200 200 207 205 203 201 199 199 186 176 184 192 167 151 157 174 171 173 179 172 178 173 165 170 175 183 192 175 164 154 143 144 151 162 161 150 150 149 141 137 131 124 121 120 123 128 125 123 124 122 121 118 113 111 109 108 106 103 101 100 98 96 93 89 85 81 77 72 68 63 59 56 53 52 54
144 142 147 156 157 164 183 190 194 203 200 194 199 206 205 203 207 205 199 193 189 196 167 144 153 172 169 175 182 181 192 176 164 170 170 178 191 177 165 148 144 151 155 161 159 152 155 151 145 140 132 129 127 124 129 136 135 132 132 131 129 125 120 118 116 112 108 105 103 100 98 96 93 89 85 81 77 72 68 63 57 52 47 44 41
130 132 136 148 149 154 179 187 191 199 198 191 191 193 194 200 204 200 208 208 188 193 186 155 165 176 176 183 179 179 193 186 190 186 173 179 188 175 169 153 155 161 156 158 160 155 152 149 147 141 135 133 130 131 140 145 143 141 140 139 136 133 130 129 124 118 113 109 107 104 102 99 95 92 87 82 78 73 68 63 59 53 47 42 36
124 128 133 145 154 176 196 189 186 195 197 193 189 187 189 194 192 192 200 203 192 190 188 176 177 175 180 186 175 182 196 188 199 194 181 190 189 173 172 171 166 161 156 161 157 150 152 152 148 143 143 140 136 143 151 153 152 148 147 150 149 145 144 141 135 127 122 116 112 108 105 102 98 94 88 83 78 72 69 63 57 53 45 40 34
131 134 139 139 144 194 211 191 180 194 199 195 193 188 190 195 193 194 192 189 192 190 186 195 183 167 178 187 179 185 192 191 197 196 193 197 188 178 178 176 173 165 163 165 149 148 158 159 152 148 151 148 144 150 156 160 160 152 153 163 165 161 159 157 152 145 139 130 123 116 109 104 99 94 87 82 76 68 64 58 51 46 39 34 29
138 141 143 138 142 164 189 186 187 199 199 196 203 195 192 201 197 189 185 184 189 186 182 189 180 172 181 181 178 181 186 193 195 188 192 189 179 184 185 178 183 179 167 164 150 153 162 164 159 155 157 158 155 156 160 165 163 155 161 174 175 175 172 172 175 169 166 161 148 141 127 115 102 93 87 77 70 61 53 47 39 34 27 22 19
137 141 143 140 144 149 157 179 194 205 204 199 208 208 211 213 198 184 187 188 188 188 187 182 178 186 182 170 177 189 185 189 185 177 185 174 166 190 197 182 186 179 167 169 155 152 164 166 158 156 162 164 163 164 166 172 174 165 171 183 187 189 186 187 194 193 197 202 192 192 188 174 168 119 88 65 51 41 36 32 24 19 13 10 6
136 140 145 147 151 157 165 179 196 207 211 214 213 217 228 219 200 195 201 198 197 199 196 184 180 190 184 174 188 190 178 180 181 175 176 166 170 204 209 177 171 176 173 168 148 145 161 165 155 156 164 167 167 171 171 176 185 180 180 195 203 208 208 207 212 212 212 223 227 228 233 234 241 252 260 282 315 342 356 3 5 2 358 358 355
139 145 152 151 157 169 175 183 198 204 206 215 222 221 226 219 200 201 213 212 206 196 185 181 185 190 187 188 192 186 177 181 181 174 169 166 181 204 201 166 165 182 186 167 147 145 154 163 167 161 164 172 176 179 177 177 188 193 189 199 212 218 220 219 224 230 231 236 242 244 247 251 254 260 264 271 280 290 307 325 336 342 344 346 345
146 152 154 152 162 172 172 177 189 199 200 205 218 218 216 214 200 201 211 216 211 189 176 184 191 187 183 186 186 179 178 179 178 176 168 169 187 190 177 170 166 180 201 176 148 150 158 168 184 173 167 181 188 185 186 183 185 195 198 202 210 214 216 218 226 238 243 245 248 251 254 257 259 262 265 269 272 276 284 296 311 322 327 332 333
151 151 152 161 172 167 159 157 153 160 171 170 179 186 187 189 194 197 192 194 192 177 176 181 182 179 177 183 181 173 171 173 181 183 171 178 196 182 168 176 166 176 218 201 150 154 165 172 190 187 172 187 206 195 191 192 190 196 204 208 210 211 214 218 224 236 243 244 245 251 257 260 262 263 266 269 270 269 272 279 291 303 312 319 322
151 148 151 159 167 159 150 145 140 141 149 152 155 162 168 173 177 177 171 170 168 167 175 173 167 162 166 185 185 173 170 176 187 189 177 191 206 179 164 180 172 174 215 238 161 160 167 172 191 203 182 180 209 214 198 197 198 201 209 214 216 217 219 223 227 234 240 242 244 250 257 261 264 265 265 266 267 266 267 271 279 289 298 306 310
149 149 153 159 165 159 157 159 153 147 151 156 153 153 165 166 166 170 162 157 163 168 175 173 160 153 160 179 185 180 179 181 188 191 184 198 211 180 169 183 180 175 193 223 204 183 181 178 182 203 201 181 195 219 213 204 201 204 215 221 223 224 224 227 230 233 237 238 240 248 254 257 261 264 264 263 262 263 263 265 272 280 289 295 300
151 153 157 162 166 163 169 176 169 156 156 161 160 162 175 171 164 163 152 153 167 170 175 173 160 158 167 174 176 183 188 184 185 194 191 198 212 188 179 191 184 173 180 200 216 220 229 208 183 191 212 205 200 208 216 218 212 212 216 220 229 235 234 233 230 228 235 240 244 250 254 256 260 260 260 259 257 257 259 261 267 274 280 287 292
151 156 157 158 166 168 168 168 163 154 156 164 158 159 181 187 183 171 153 158 160 156 170 179 170 174 180 172 171 186 197 189 188 198 196 196 212 203 190 203 198 178 176 194 214 218 225 232 219 207 212 221 219 214 219 223 222 228 230 227 231 235 234 237 235 230 232 235 243 254 255 255 259 259 256 255 253 253 255 257 261 268 273 278 285
149 153 152 155 164 161 153 154 151 131 96 60 96 115 143 182 187 194 186 185 176 162 172 180 173 185 189 180 178 179 181 179 183 195 197 192 205 213 202 210 218 200 189 200 216 222 217 219 228 227 219 218 220 221 230 231 226 229 233 239 246 242 235 235 232 226 224 219 226 248 259 256 253 252 248 246 246 246 249 254 257 262 267 271 277
140 142 145 154 156 146 145 145 125 105 71 55 96 102 54 75 180 205 198 203 207 189 193 196 188 199 197 179 165 160 158 157 161 172 187 190 196 210 209 212 223 224 221 219 219 225 226 222 223 227 226 223 220 220 227 235 241 242 239 243 252 254 253 253 242 227 223 221 212 221 248 255 250 248 245 242 245 244 243 249 254 256 261 267 273
132 132 138 146 150 153 152 126 96 109 115 93 138 154 65 65 27 314 189 199 212 206 208 210 203 204 202 183 164 166 169 168 167 166 174 184 191 199 200 206 219 226 229 232 232 230 232 231 226 225 228 232 232 230 226 229 242 253 252 250 256 262 261 261 259 243 233 236 230 219 230 238 235 239 241 238 243 245 242 245 251 255 258 261 267
126 129 139 144 143 141 134 109 101 136 143 124 166 194 167 131 47 42 106 197 209 208 209 208 202 199 200 195 184 186 186 174 181 191 188 195 208 223 234 227 228 247 256 253 252 247 243 244 241 236 237 240 241 242 239 237 238 239 240 244 252 261 263 261 263 261 250 245 243 242 246 235 217 221 230 227 232 240 239 242 250 256 258 258 264
124 126 134 137 124 109 106 109 124 139 137 135 159 176 182 186 129 86 59 210 199 210 212 208 209 199 194 193 180 180 190 181 167 204 231 235 238 243 254 253 245 253 266 272 274 273 270 268 260 253 253 255 255 250 247 252 255 249 243 244 245 249 257 259 256 260 261 248 236 240 248 237 215 215 228 230 230 234 233 235 243 250 254 259 265
114 116 119 122 117 109 112 127 136 136 140 145 151 161 171 176 166 167 259 234 192 206 213 215 234 208 184 188 179 182 200 205 213 252 262 266 273 273 273 271 264 259 258 262 266 269 276 282 279 269 265 265 264 263 263 265 267 264 256 254 255 254 254 253 254 261 265 248 226 223 236 242 229 218 226 236 236 230 224 225 233 241 248 255 263
115 113 114 115 114 114 125 138 139 135 138 142 148 158 157 157 169 179 298 285 186 189 197 212 266 21 156 196 213 210 196 176 211 234 260 272 280 286 281 272 268 264 260 259 258 257 261 266 269 271 272 272 272 273 273 267 262 264 263 260 262 264 261 261 264 265 255 237 225 223 236 248 240 219 222 235 237 231 228 230 234 240 246 253 259
122 115 113 113 113 113 123 133 134 130 129 132 141 151 153 155 156 148 118 234 215 205 184 192 226 228 251 288 273 268 12 103 213 228 242 257 265 279 282 272 265 262 260 261 261 258 256 256 259 265 267 269 271 270 268 265 256 254 258 260 266 270 268 264 260 249 232 227 227 230 242 250 245 232 229 232 234 234 236 236 237 244 252 255 258
117 113 109 109 108 106 109 114 119 120 119 122 133 141 150 154 135 106 206 219 214 211 183 189 235 226 185 193 280 307 306 258 257 252 247 255 268 281 283 278 274 273 270 267 266 263 258 255 257 261 262 262 263 263 265 265 260 253 251 257 265 267 266 262 257 249 240 231 224 227 241 250 249 247 241 234 239 243 237 231 234 247 256 256 255
110 105 106 109 108 106 103 98 101 111 114 112 119 125 140 152 133 83 340 233 213 240 215 234 270 233 199 236 313 8 312 255 266 272 272 277 286 293 292 288 285 282 279 274 270 265 260 260 262 264 264 262 261 262 262 260 259 256 252 253 256 256 257 264 270 266 258 248 231 222 230 245 247 247 245 238 243 249 241 233 236 241 249 252 252
104 101 106 109 108 108 108 101 89 85 91 91 93 99 105 141 142 89 5 311 262 310 307 302 307 272 258 287 304 311 278 275 279 283 285 288 292 296 300 298 289 283 281 280 277 273 269 270 272 270 269 269 268 265 262 259 257 254 251 250 250 248 248 249 258 264 263 262 248 220 214 235 241 240 247 244 243 246 243 236 232 226 227 240 250
102 103 105 105 104 103 106 106 94 78 62 51 47 45 43 54 107 81 20 355 4 7 339 325 328 320 296 298 296 285 279 280 279 280 284 288 291 292 298 301 293 286 287 289 289 288 282 277 276 272 271 274 274 269 266 263 259 255 253 253 252 252 249 245 249 257 262 269 260 224 211 229 235 233 245 246 244 247 236 224 225 221 220 237 254